Wrangell, AK

1:02 AM AKDT on May 29, 2017 (GMT -0800)
Wrangell

Weather History for PAWG - April, 2014

Change the Weather History Date:

Sunday, April 20, 2014

  Actual Average Record
Temperature  
Mean Temperature 48 °F -  
Max Temperature 53 °F 49 °F 58 °F (1978)
Min Temperature 42 °F 35 °F 21 °F (1962)
Degree Days  
Heating Degree Days 18    
Moisture  
Dew Point 35 °F    
Average Humidity 62    
Maximum Humidity 81    
Minimum Humidity 47    
Precipitation  
Precipitation 0.02 in - - ()
Sea Level Pressure  
Sea Level Pressure 29.82 in    
Wind  
Wind Speed 16 mph (ESE)    
Max Wind Speed 24 mph    
Max Gust Speed 31 mph    
Visibility 10 miles    
Events      
Averages and records for this station are not official NWS values.
T = Trace of Precipitation, MM = Missing Value Source: NWS Daily Summary

Daily Weather History Graph

Daily Weather History Graph

Search for Another Location

Airport or City:

Trip Planner

Search our weather history database for the weather conditions in past years. The results will help you decide how hot, cold, wet, or windy it might be!

Date:

Astronomy

Apr. 20, 2014 Rise Set
Actual Time 5:29 AM AKDT 8:08 PM AKDT
Civil Twilight 4:47 AM AKDT 8:50 PM AKDT
Nautical Twilight 3:52 AM AKDT 9:46 PM AKDT
Astronomical Twilight 2:41 AM AKDT 10:59 PM AKDT
Moon 1:17 AM AKDT (4/20) 9:35 AM AKDT (4/20)
Length of Visible Light 16h 03m
Length of Day
14h 38m
Waning Gibbous, 67% of the Moon is Illuminated
Apr 20
Waning Gibbous
Apr 21
Last Quarter
Apr 28
New
May 6
First Quarter
May 14
Full

Hourly Weather History & Observations

Time (AKDT) Temp. Windchill Dew Point Humidity Pressure Visibility Wind Dir Wind Speed Gust Speed Precip Events Conditions
12:16 AM 46.4 °F 39.0 °F 35.6 °F 66% 29.60 in 10.0 mi SE 19.6 mph 24.2 mph N/A   Overcast
12:36 AM 46.4 °F 39.0 °F 35.6 °F 66% 29.61 in 10.0 mi SE 19.6 mph 27.6 mph N/A   Mostly Cloudy
12:56 AM 46.4 °F 38.7 °F 35.6 °F 66% 29.63 in 10.0 mi SE 20.7 mph 28.8 mph N/A   Scattered Clouds
1:16 AM 46.4 °F 38.3 °F 35.6 °F 66% 29.64 in 10.0 mi ESE 23.0 mph 28.8 mph N/A   Scattered Clouds
1:36 AM 46.4 °F 39.0 °F 35.6 °F 66% 29.67 in 10.0 mi SE 19.6 mph 31.1 mph N/A   Clear
1:56 AM 44.6 °F 37.2 °F 35.6 °F 71% 29.68 in 10.0 mi SE 17.3 mph 23.0 mph N/A   Mostly Cloudy
2:16 AM 44.6 °F 37.2 °F 35.6 °F 71% 29.70 in 10.0 mi ESE 17.3 mph 25.3 mph N/A   Overcast
2:36 AM 44.6 °F 36.9 °F 35.6 °F 71% 29.71 in 10.0 mi ESE 18.4 mph - N/A   Scattered Clouds
2:56 AM 44.6 °F 36.9 °F 35.6 °F 71% 29.72 in 10.0 mi ESE 18.4 mph 23.0 mph N/A   Mostly Cloudy
3:16 AM 44.6 °F 37.4 °F 35.6 °F 71% 29.74 in 10.0 mi SE 16.1 mph 20.7 mph N/A   Overcast
3:36 AM 44.6 °F 37.2 °F 35.6 °F 71% 29.75 in 10.0 mi ESE 17.3 mph 24.2 mph 0.01 in   Overcast
3:56 AM 44.6 °F 37.2 °F 35.6 °F 71% 29.76 in 10.0 mi ESE 17.3 mph 25.3 mph 0.01 in   Overcast
4:16 AM 44.6 °F 36.6 °F 35.6 °F 71% 29.77 in 10.0 mi ESE 19.6 mph 23.0 mph N/A   Overcast
4:36 AM 44.6 °F 36.9 °F 35.6 °F 71% 29.78 in 10.0 mi ESE 18.4 mph 24.2 mph N/A   Overcast
4:56 AM 44.6 °F 37.8 °F 35.6 °F 71% 29.80 in 10.0 mi ESE 15.0 mph - N/A   Mostly Cloudy
5:16 AM 44.6 °F 37.8 °F 35.6 °F 71% 29.81 in 10.0 mi ESE 15.0 mph 24.2 mph N/A   Mostly Cloudy
5:36 AM 44.6 °F 37.8 °F 35.6 °F 71% 29.82 in 10.0 mi ESE 15.0 mph 20.7 mph N/A   Overcast
5:56 AM 42.8 °F 36.6 °F 35.6 °F 76% 29.84 in 10.0 mi ESE 11.5 mph - 0.01 in   Overcast
6:16 AM 42.8 °F 35.8 °F 35.6 °F 76% 29.85 in 10.0 mi SE 13.8 mph 20.7 mph N/A   Overcast
6:36 AM 44.6 °F 38.1 °F 35.6 °F 71% 29.86 in 10.0 mi SE 13.8 mph - N/A   Overcast
6:56 AM 44.6 °F 38.4 °F 35.6 °F 71% 29.87 in 10.0 mi SE 12.7 mph - N/A   Mostly Cloudy
7:16 AM 44.6 °F 37.4 °F 33.8 °F 66% 29.87 in 10.0 mi SE 16.1 mph - N/A   Mostly Cloudy
7:36 AM 44.6 °F 37.8 °F 33.8 °F 66% 29.88 in 10.0 mi SE 15.0 mph 26.5 mph N/A   Mostly Cloudy
7:56 AM 44.6 °F 38.8 °F 35.6 °F 71% 29.89 in 10.0 mi ESE 11.5 mph - N/A   Scattered Clouds
8:16 AM 44.6 °F 37.2 °F 35.6 °F 71% 29.89 in 10.0 mi ESE 17.3 mph 23.0 mph N/A   Scattered Clouds
8:36 AM 46.4 °F 40.1 °F 33.8 °F 62% 29.90 in 10.0 mi SE 15.0 mph - N/A   Scattered Clouds
8:56 AM 46.4 °F 40.1 °F 33.8 °F 62% 29.89 in 10.0 mi SE 15.0 mph 23.0 mph N/A   Scattered Clouds
9:16 AM 48.2 °F - 32.0 °F 54% 29.90 in 10.0 mi SE 18.4 mph 23.0 mph N/A   Scattered Clouds
9:36 AM 48.2 °F - 32.0 °F 54% 29.89 in 10.0 mi SE 19.6 mph 24.2 mph N/A   Scattered Clouds
9:56 AM 48.2 °F - 33.8 °F 58% 29.90 in 10.0 mi SE 15.0 mph 26.5 mph N/A   Scattered Clouds
10:16 AM 48.2 °F - 35.6 °F 62% 29.90 in 10.0 mi ESE 17.3 mph - N/A   Scattered Clouds
10:36 AM 48.2 °F - 35.6 °F 62% 29.90 in 10.0 mi ESE 11.5 mph - N/A   Scattered Clouds
10:56 AM 48.2 °F - 33.8 °F 58% 29.90 in 10.0 mi SE 12.7 mph - N/A   Mostly Cloudy
11:16 AM 48.2 °F - 35.6 °F 62% 29.89 in 10.0 mi ESE 16.1 mph 19.6 mph N/A   Mostly Cloudy
11:36 AM 51.8 °F - 35.6 °F 54% 29.89 in 10.0 mi ESE 13.8 mph - N/A   Mostly Cloudy
11:56 AM 50.0 °F - 35.6 °F 58% 29.89 in 10.0 mi ESE 12.7 mph - N/A   Mostly Cloudy
12:16 PM 50.0 °F - 33.8 °F 54% 29.89 in 10.0 mi ESE 15.0 mph 20.7 mph N/A   Mostly Cloudy
12:36 PM 51.8 °F - 35.6 °F 54% 29.89 in 10.0 mi ESE 11.5 mph - N/A   Mostly Cloudy
12:56 PM 53.6 °F - 35.6 °F 51% 29.88 in 10.0 mi ESE 10.4 mph - N/A   Mostly Cloudy
1:16 PM 51.8 °F - 35.6 °F 54% 29.88 in 10.0 mi ESE 10.4 mph - N/A   Mostly Cloudy
1:36 PM 51.8 °F - 35.6 °F 54% 29.86 in 10.0 mi East 12.7 mph - N/A   Mostly Cloudy
1:56 PM 53.6 °F - 35.6 °F 51% 29.86 in 10.0 mi ESE 12.7 mph 18.4 mph N/A   Mostly Cloudy
2:16 PM 53.6 °F - 35.6 °F 51% 29.85 in 10.0 mi ESE 11.5 mph - N/A   Mostly Cloudy
2:36 PM 51.8 °F - 35.6 °F 54% 29.84 in 10.0 mi East 10.4 mph 16.1 mph N/A   Mostly Cloudy
2:56 PM 51.8 °F - 35.6 °F 54% 29.83 in 10.0 mi ESE 10.4 mph - N/A   Mostly Cloudy
3:16 PM 51.8 °F - 33.8 °F 50% 29.83 in 10.0 mi East 9.2 mph - N/A   Mostly Cloudy
3:36 PM 51.8 °F - 33.8 °F 50% 29.82 in 10.0 mi East 13.8 mph - N/A   Mostly Cloudy
3:56 PM 51.8 °F - 33.8 °F 50% 29.82 in 10.0 mi ESE 13.8 mph 21.9 mph N/A   Overcast
4:16 PM 53.6 °F - 33.8 °F 47% 29.80 in 10.0 mi ESE 15.0 mph 23.0 mph N/A   Overcast
4:36 PM 51.8 °F - 33.8 °F 50% 29.80 in 10.0 mi East 16.1 mph 19.6 mph N/A   Overcast
4:56 PM 51.8 °F - 33.8 °F 50% 29.80 in 10.0 mi East 13.8 mph 18.4 mph N/A   Overcast
5:16 PM 51.8 °F - 33.8 °F 50% 29.79 in 10.0 mi East 10.4 mph 16.1 mph N/A   Overcast
5:36 PM 51.8 °F - 32.0 °F 47% 29.79 in 10.0 mi East 11.5 mph - N/A   Overcast
5:56 PM 51.8 °F - 33.8 °F 50% 29.78 in 10.0 mi ESE 10.4 mph - N/A   Overcast
6:16 PM 51.8 °F - 33.8 °F 50% 29.79 in 10.0 mi East 10.4 mph - N/A   Overcast
6:36 PM 51.8 °F - 33.8 °F 50% 29.78 in 10.0 mi ESE 11.5 mph - N/A   Overcast
6:56 PM 51.8 °F - 33.8 °F 50% 29.78 in 10.0 mi ESE 10.4 mph - N/A   Overcast
7:16 PM 51.8 °F - 33.8 °F 50% 29.79 in 10.0 mi ESE 10.4 mph - N/A   Overcast
7:36 PM 51.8 °F - 33.8 °F 50% 29.80 in 10.0 mi ESE 10.4 mph - N/A   Overcast
7:56 PM 51.8 °F - 33.8 °F 50% 29.81 in 10.0 mi South 6.9 mph - N/A   Overcast
8:16 PM 51.8 °F - 32.0 °F 47% 29.82 in 10.0 mi SSW 19.6 mph - N/A   Overcast
8:36 PM 46.4 °F 38.1 °F 35.6 °F 66% 29.83 in 10.0 mi SSW 24.2 mph 28.8 mph N/A   Overcast
8:56 PM 44.6 °F 38.1 °F 35.6 °F 71% 29.86 in 10.0 mi SSW 13.8 mph 23.0 mph N/A   Overcast
9:16 PM 44.6 °F 40.2 °F 35.6 °F 71% 29.87 in 10.0 mi SSW 8.1 mph - N/A   Overcast
9:36 PM 46.4 °F 40.4 °F 37.4 °F 71% 29.87 in 10.0 mi East 13.8 mph 19.6 mph N/A   Overcast
9:56 PM 44.6 °F 38.4 °F 37.4 °F 76% 29.87 in 10.0 mi East 12.7 mph - N/A   Mostly Cloudy
10:16 PM 44.6 °F 40.2 °F 37.4 °F 76% 29.87 in 10.0 mi East 8.1 mph - N/A   Mostly Cloudy
10:36 PM 44.6 °F 39.2 °F 35.6 °F 71% 29.87 in 10.0 mi SSE 10.4 mph - N/A   Mostly Cloudy
10:56 PM 44.6 °F 40.2 °F 35.6 °F 71% 29.87 in 10.0 mi SSE 8.1 mph - N/A   Mostly Cloudy
11:16 PM 42.8 °F 36.6 °F 37.4 °F 81% 29.88 in 10.0 mi SE 11.5 mph - N/A   Partly Cloudy
11:36 PM 42.8 °F 38.0 °F 37.4 °F 81% 29.87 in 10.0 mi ESE 8.1 mph - N/A   Scattered Clouds
11:56 PM 42.8 °F 36.6 °F 35.6 °F 76% 29.88 in 10.0 mi SSE 11.5 mph - N/A   Partly Cloudy